Port Isabel, TX

5:46 AM CDT on October 21, 2017 (GMT -0500)
Port Isabel-Cameron County

Weather History for KPIL - November, 2013

Change the Weather History Date:

Tuesday, November 26, 2013

  Actual Average (KBRO) Record (KBRO)
Temperature  
Mean Temperature 53 °F -  
Max Temperature 60 °F 74 °F 93 °F (1988)
Min Temperature 46 °F 55 °F 37 °F (1974)
Degree Days  
Heating Degree Days 12    
Growing Degree Days 3 (Base 50)    
Moisture  
Dew Point 41 °F    
Average Humidity 75    
Maximum Humidity 93    
Minimum Humidity 44    
Precipitation  
Precipitation 0.17 in - - ()
Sea Level Pressure  
Sea Level Pressure 30.19 in    
Wind  
Wind Speed 18 mph (NW)    
Max Wind Speed 29 mph    
Max Gust Speed 39 mph    
Visibility 9 miles    
Events Rain , Thunderstorm    
Averages and records for this station are not official NWS values.
T = Trace of Precipitation, MM = Missing Value Source: NWS Daily Summary

Daily Weather History Graph

Daily Weather History Graph

Search for Another Location

Airport or City:

Trip Planner

Search our weather history database for the weather conditions in past years. The results will help you decide how hot, cold, wet, or windy it might be!

Date:

Astronomy

Nov. 26, 2013 Rise Set
Actual Time 6:56 AM CST 5:37 PM CST
Civil Twilight 6:31 AM CST 6:02 PM CST
Nautical Twilight 6:03 AM CST 6:30 PM CST
Astronomical Twilight 5:35 AM CST 6:58 PM CST
Moon 12:37 AM CST (11/26) 1:10 PM CST (11/26)
Length of Visible Light 11h 30m
Length of Day
10h 40m
Last Quarter, 41% of the Moon is Illuminated
Nov 26
Last Quarter
Dec 2
New
Dec 9
First Quarter
Dec 17
Full
Dec 25
Last Quarter

Hourly Weather History & Observations

Time (CST) Temp. Windchill Dew Point Humidity Pressure Visibility Wind Dir Wind Speed Gust Speed Precip Events Conditions
12:13 AM 46.4 °F 39.5 °F 44.6 °F 93% 30.13 in 10.0 mi NW 17.3 mph 24.2 mph 0.00 in Rain Light Rain
12:38 AM 46.4 °F 39.5 °F 44.6 °F 93% 30.11 in 5.0 mi NW 17.3 mph - 0.03 in Rain Heavy Rain
12:53 AM 46.9 °F - 44.1 °F 90% 30.12 in 5.0 mi NW 20.7 mph - 0.07 in Rain Rain
1:15 AM 46.4 °F 38.7 °F 42.8 °F 87% 30.10 in 5.0 mi NNW 20.7 mph 24.2 mph 0.05 in Rain , Thunderstorm Heavy Thunderstorms and Rain
1:24 AM 46.4 °F 39.8 °F 42.8 °F 87% 30.11 in 5.0 mi NNW 16.1 mph 28.8 mph 0.07 in Rain , Thunderstorm Light Thunderstorms and Rain
1:28 AM 46.4 °F 39.0 °F 42.8 °F 87% 30.12 in 8.0 mi NW 19.6 mph 24.2 mph 0.07 in Rain , Thunderstorm Light Thunderstorms and Rain
1:30 AM 46.4 °F 39.8 °F 42.8 °F 87% 30.12 in 10.0 mi NW 16.1 mph 24.2 mph 0.07 in Rain Light Rain
1:40 AM 46.4 °F 39.0 °F 42.8 °F 87% 30.14 in 10.0 mi NW 19.6 mph 25.3 mph 0.07 in   Overcast
1:53 AM 46.0 °F 38.8 °F 43.0 °F 89% 30.13 in 10.0 mi NW 18.4 mph - 0.07 in Rain Light Rain
2:53 AM 46.0 °F 38.8 °F 43.0 °F 89% 30.13 in 10.0 mi NW 18.4 mph - 0.03 in   Overcast
3:41 AM 46.4 °F 39.2 °F 42.8 °F 87% 30.12 in 10.0 mi NNW 18.4 mph - N/A   Overcast
3:53 AM 46.0 °F 38.5 °F 43.0 °F 89% 30.12 in 10.0 mi NNW 19.6 mph 26.5 mph N/A   Overcast
4:16 AM 46.4 °F 39.5 °F 42.8 °F 87% 30.14 in 10.0 mi NW 17.3 mph - N/A   Overcast
4:53 AM 46.9 °F - 43.0 °F 86% 30.13 in 10.0 mi NNW 16.1 mph - N/A   Overcast
5:23 AM 46.4 °F 38.5 °F 42.8 °F 87% 30.15 in 10.0 mi NW 21.9 mph - N/A   Scattered Clouds
5:53 AM 46.0 °F 39.3 °F 43.0 °F 89% 30.16 in 10.0 mi NW 16.1 mph - N/A   Mostly Cloudy
6:53 AM 46.0 °F 39.9 °F 42.1 °F 86% 30.18 in 10.0 mi NW 13.8 mph - N/A   Clear
7:53 AM 46.9 °F - 43.0 °F 86% 30.21 in 9.0 mi NNW 12.7 mph - N/A   Clear
8:53 AM 48.9 °F - 43.0 °F 80% 30.23 in 9.0 mi NNW 17.3 mph 21.9 mph N/A   Scattered Clouds
9:53 AM 52.0 °F - 39.9 °F 63% 30.25 in 9.0 mi NNW 21.9 mph 31.1 mph N/A   Clear
10:53 AM 54.0 °F - 41.0 °F 62% 30.25 in 9.0 mi NW 26.5 mph 31.1 mph N/A   Clear
11:53 AM 55.9 °F - 39.9 °F 55% 30.24 in 9.0 mi NNW 28.8 mph 35.7 mph N/A   Clear
12:53 PM 57.0 °F - 37.9 °F 49% 30.20 in 9.0 mi NW 25.3 mph 33.4 mph N/A   Clear
1:53 PM 59.0 °F - 37.9 °F 46% 30.19 in 9.0 mi NNW 25.3 mph 39.1 mph N/A   Clear
2:53 PM 60.1 °F - 37.9 °F 44% 30.18 in 9.0 mi NW 25.3 mph 31.1 mph N/A   Partly Cloudy
3:53 PM 59.0 °F - 37.9 °F 46% 30.19 in 9.0 mi NNW 24.2 mph 31.1 mph N/A   Partly Cloudy
4:53 PM 57.0 °F - 39.0 °F 51% 30.21 in 9.0 mi NNW 21.9 mph 27.6 mph N/A   Clear
5:53 PM 53.1 °F - 37.9 °F 57% 30.26 in 9.0 mi NNW 19.6 mph 27.6 mph N/A   Clear
6:53 PM 50.0 °F - 37.9 °F 63% 30.29 in 10.0 mi NNW 13.8 mph - N/A   Clear
7:53 PM 48.9 °F - 37.0 °F 64% 30.31 in 10.0 mi NNW 17.3 mph - N/A   Clear
8:53 PM 48.0 °F - 37.0 °F 66% 30.33 in 10.0 mi NNW 11.5 mph - N/A   Clear
9:53 PM 46.9 °F - 37.9 °F 71% 30.35 in 10.0 mi WNW 5.8 mph - N/A   Clear
10:53 PM 46.9 °F - 37.9 °F 71% 30.37 in 10.0 mi West 5.8 mph - N/A   Clear
11:53 PM 46.0 °F 42.5 °F 37.9 °F 73% 30.36 in 10.0 mi WNW 6.9 mph - N/A   Clear